Location: Risskov
(56.1972°N, 10.2480°E)
Time: 00:36:46
(UTC+00:00)

Cosmos 1151 Rocket - Pass Details

Date: 05 July 2020
Orbit: 591 x 617 km, 82.5° (Epoch: 03 August)

Event Time Altitude Azimuth Distance (km) Brightness Sun altitude
Rises 23:30:27 0° 342° (NNW) 2,887 8.0 -11.1°
Reaches altitude 10° 23:32:50 10° 333° (NNW) 1,973 6.7 -11.1°
Maximum altitude 23:36:44 32° 270° (W) 1,039 4.2 -11.1°
Enters shadow 23:40:03 13° 210° (SSW) 1,759 4.8 -11.1°
